RH
11 11 10 11 14 14 14 13 12 12 11 9 7 6 5 5 6 6 6 5 5 6 8 10 13 14 14 13 12 11 10 10 11 14 20 24 24 24 24 24 25 24 24 28 34 40 45 47 50 52 56 60 62 66 64 62 66 70 78 81 81 80 78 73 61 59 69 65 51 45 46 42 39 41 39 44 50 49 49 48 45 48 51 49 47 46 45 46
11 9 8 10 12 12 13 13 13 13 13 13 11 10 8 6 6 6 6 6 5 5 6 8 10 12 13 13 13 12 11 12 13 16 20 20 20 21 22 22 24 24 24 30 35 37 43 47 47 46 52 59 59 61 62 62 66 71 76 79 78 78 77 74 66 63 68 64 53 49 49 45 40 38 42 48 47 47 49 48 47 46 45 43 43 45 46 48
9 8 7 9 10 10 12 13 13 13 13 13 13 12 11 9 7 6 5 6 6 5 5 6 8 9 12 13 13 13 12 14 16 19 20 17 17 19 20 21 23 22 24 31 33 34 40 46 47 45 49 58 57 56 60 61 66 72 73 75 74 72 71 71 69 68 67 64 60 54 49 47 43 42 46 48 48 51 50 47 48 44 39 39 41 45 46 49
9 7 6 8 8 9 10 11 11 12 12 12 12 12 12 11 9 7 6 5 6 6 5 5 6 7 10 12 13 14 13 16 19 19 17 13 13 16 18 21 22 21 26 31 31 31 36 43 45 44 48 57 54 50 57 58 62 67 67 69 67 70 73 67 64 68 67 65 66 59 51 48 45 49 51 48 50 54 51 47 47 43 39 39 41 44 46 50
8 6 6 7 8 9 9 9 9 10 10 11 11 12 12 12 11 9 6 5 5 6 6 5 5 5 7 9 12 14 15 20 23 19 15 12 11 13 15 19 21 21 27 31 29 31 36 40 42 44 48 55 53 49 55 56 57 61 62 64 63 69 75 66 60 65 68 69 70 62 56 51 47 54 55 51 54 54 52 48 45 43 39 40 44 46 48 48
6 5 5 7 8 9 9 9 8 9 9 10 11 11 12 11 10 9 6 5 5 5 6 6 5 5 5 7 10 13 18 25 26 20 14 11 10 10 12 16 20 21 25 27 26 30 37 38 41 47 48 51 52 48 51 52 54 61 63 64 64 66 70 67 60 63 67 68 69 65 59 53 49 54 55 53 56 53 50 47 45 44 41 43 45 46 49 50
6 5 5 7 8 9 9 8 8 9 9 10 10 10 10 10 9 8 7 5 5 5 5 5 6 5 4 5 8 12 20 26 24 19 15 12 10 10 10 14 17 19 23 22 22 30 36 39 43 47 47 51 52 45 45 48 54 61 63 65 66 65 69 69 61 59 64 66 70 69 60 55 52 53 52 51 52 50 50 49 45 44 44 45 46 49 52 51
5 4 5 7 8 8 9 9 9 9 9 9 9 9 9 9 9 8 7 7 6 6 5 5 5 6 6 5 8 14 20 23 20 17 15 13 11 11 11 13 14 17 20 19 21 29 35 39 44 47 46 50 48 42 44 52 60 63 62 65 66 66 68 71 67 61 61 64 72 72 62 57 55 54 50 47 46 48 50 49 47 46 47 47 48 51 51 52
5 5 5 6 8 8 9 9 10 10 9 9 8 8 8 8 9 9 9 8 8 7 5 5 5 6 6 6 11 19 22 18 15 15 15 15 12 11 13 14 14 15 17 16 20 27 33 37 42 45 45 45 40 41 50 59 65 64 61 64 64 65 68 72 72 67 61 63 70 73 67 59 55 54 51 47 46 48 49 48 47 46 49 52 51 52 51 53
6 6 6 7 8 8 9 10 10 10 10 9 8 7 7 8 8 9 10 9 8 7 6 5 5 5 5 9 16 22 23 17 13 13 14 17 14 13 16 16 13 13 14 14 17 23 30 34 38 40 40 40 40 45 55 60 62 59 59 63 62 64 70 70 72 73 66 63 68 73 71 60 52 54 53 49 46 47 49 48 48 47 51 54 52 52 53 54
6 6 7 8 9 9 10 10 10 10 10 9 8 7 6 7 8 10 10 10 9 8 6 3 4 5 5 13 20 22 22 18 15 13 13 16 16 15 16 16 15 14 13 13 15 20 26 30 34 36 36 37 40 48 55 58 58 56 59 66 64 64 69 68 72 77 71 65 68 74 74 60 51 57 55 48 45 48 51 48 48 49 52 54 53 52 52 52
7 7 7 8 9 11 11 10 10 9 9 9 9 8 6 6 7 9 9 9 9 7 6 3 5 6 7 14 19 19 18 16 16 14 13 14 15 15 14 15 15 14 13 12 14 19 22 24 28 33 34 33 34 43 53 54 55 56 60 67 67 63 67 72 77 78 70 67 71 74 76 64 56 60 55 48 46 49 52 49 49 50 51 54 55 50 49 49
7 7 7 9 9 11 11 10 10 10 10 10 10 9 7 6 7 8 8 8 9 7 4 4 4 5 11 18 14 12 14 14 15 14 14 14 14 14 13 14 14 15 14 13 15 18 20 21 24 29 31 30 33 44 51 52 55 56 58 63 66 66 70 78 81 77 70 69 72 74 76 70 65 63 54 48 46 47 53 51 49 48 50 54 54 50 49 47
8 8 8 9 10 11 11 10 11 11 11 11 10 9 7 7 7 7 8 8 9 7 4 5 6 7 15 16 10 9 12 12 14 14 15 15 15 14 13 13 13 14 15 15 15 16 20 21 21 26 27 28 35 46 51 54 56 54 59 62 62 68 76 80 77 74 73 72 74 76 77 74 72 68 53 48 46 44 51 54 53 49 48 52 53 52 50 45
8 8 8 9 10 11 11 10 11 12 11 11 10 9 7 6 7 8 8 8 8 7 6 7 8 11 16 14 9 9 9 12 13 13 14 15 15 14 14 14 12 13 14 15 15 17 22 22 20 24 25 27 34 42 48 58 59 55 63 66 61 68 79 83 78 76 76 73 74 75 79 78 74 70 54 47 48 44 47 52 53 50 46 49 53 56 53 47
8 8 8 9 10 11 11 11 12 12 12 11 10 9 7 7 8 8 7 8 9 8 8 10 11 16 20 14 11 10 10 14 13 12 12 13 15 14 14 14 12 12 13 14 14 18 24 23 22 23 24 27 33 42 50 62 70 68 71 70 67 71 77 80 78 78 76 72 73 73 80 83 80 74 55 46 51 47 48 52 50 49 46 46 50 55 55 51
8 7 8 9 10 12 12 12 13 14 14 13 12 11 8 8 9 10 8 8 11 11 11 15 17 19 17 13 13 15 15 14 10 11 12 12 13 12 12 12 11 10 11 13 14 17 22 25 25 22 23 25 30 46 58 63 67 68 70 72 73 73 74 78 77 78 76 73 73 71 78 83 79 75 57 45 51 51 53 55 51 48 47 46 47 52 56 51
8 8 9 10 11 12 13 14 15 16 16 15 14 13 11 11 11 11 10 9 12 16 15 16 19 23 19 13 15 16 15 12 9 10 11 11 12 11 11 11 10 10 9 12 13 14 20 23 25 23 25 28 28 43 60 62 59 60 64 70 73 72 72 75 75 73 74 75 74 73 82 84 75 73 62 48 48 53 55 57 54 50 48 47 46 51 55 52
9 10 10 11 12 14 15 15 17 17 17 17 15 15 16 17 16 12 10 12 17 19 18 16 18 22 20 15 15 15 13 11 10 10 10 10 11 10 11 11 9 9 10 12 13 13 18 21 24 23 27 33 34 43 58 62 59 59 65 68 70 72 71 70 71 70 71 75 74 74 81 83 75 72 66 54 49 53 58 58 56 53 50 48 47 51 53 52
10 10 11 12 13 15 16 17 18 18 18 17 16 16 19 22 22 15 12 14 16 15 15 15 15 17 17 15 15 15 14 13 12 12 11 10 11 11 12 11 10 9 10 13 14 15 17 20 24 27 29 34 40 47 53 56 57 60 70 73 70 71 73 72 73 70 67 71 72 71 77 80 76 71 66 56 49 52 58 58 58 56 53 48 47 52 52 52
10 11 11 13 14 15 17 18 18 19 18 17 16 16 17 19 19 16 16 15 11 11 12 12 13 14 14 14 15 16 16 15 14 14 12 11 12 12 12 11 10 10 10 13 19 18 17 21 25 29 33 34 41 50 52 53 58 61 68 73 71 72 76 75 75 73 69 72 74 73 77 81 77 73 72 62 52 54 57 56 58 57 53 48 47 53 54 51
10 11 12 13 15 16 17 18 18 19 19 18 18 16 15 15 15 15 18 16 10 10 11 10 11 12 11 12 14 15 17 16 15 15 14 12 13 15 15 12 11 13 11 14 23 25 21 20 22 31 36 34 39 50 53 53 59 64 64 66 71 77 77 74 74 74 70 76 80 74 76 81 76 71 71 65 56 55 56 56 59 58 54 50 48 52 56 53
10 10 11 12 14 16 17 17 17 18 19 19 19 17 15 14 14 16 19 19 13 11 13 12 12 12 12 13 13 14 17 18 18 17 14 13 15 15 14 13 13 14 14 15 22 27 25 20 21 31 36 32 35 43 47 51 58 64 63 64 72 75 73 73 75 73 69 75 80 75 75 79 76 70 63 61 59 55 55 57 58 56 56 52 46 50 57 53
10 10 11 12 13 15 16 16 17 19 19 20 20 18 17 15 15 17 19 20 16 12 13 13 13 12 12 13 12 13 16 16 18 18 15 14 16 14 13 14 15 15 16 18 19 20 24 27 28 32 30 27 32 37 39 47 58 63 64 67 70 67 66 71 74 73 73 76 76 74 75 76 77 72 64 64 65 57 56 59 56 53 55 54 46 48 57 55
10 10 10 11 13 14 15 15 17 18 19 19 20 19 18 17 16 19 21 21 18 14 13 12 14 13 13 14 13 13 14 13 16 17 14 15 16 16 16 14 14 16 16 17 17 16 24 32 29 26 26 24 28 33 35 42 52 61 64 68 67 63 66 69 72 75 78 78 73 70 73 74 74 73 70 72 69 60 58 60 57 53 52 52 48 47 55 57
9 11 10 11 12 12 14 16 17 17 18 19 19 19 19 18 18 21 25 25 18 15 15 14 15 14 14 15 14 15 16 15 15 15 14 15 15 16 17 15 13 15 16 17 17 15 23 29 23 21 25 25 25 29 32 35 42 53 60 62 61 61 66 67 69 74 77 77 72 69 75 79 75 71 71 75 74 67 63 61 60 56 51 50 48 46 51 56
8 10 11 11 11 11 14 15 15 16 19 20 18 19 19 19 20 23 28 30 20 15 17 16 16 16 15 14 15 17 21 19 16 16 15 15 15 14 17 18 15 15 16 16 17 16 19 22 20 20 21 23 24 25 30 32 34 45 54 58 58 56 59 63 65 68 71 74 73 70 76 84 80 70 70 76 76 72 66 61 61 59 54 50 47 45 49 54
8 9 10 12 11 11 13 13 15 15 18 19 18 20 19 19 22 23 30 33 21 14 16 16 16 16 15 15 14 17 20 19 20 21 18 16 17 16 18 20 17 17 16 13 17 19 17 16 18 19 17 20 21 23 31 32 29 37 47 52 56 51 50 60 64 63 65 71 76 73 73 83 83 71 71 77 76 74 69 63 61 60 59 53 45 43 46 51
8 8 10 11 11 12 12 12 14 14 15 16 17 19 19 19 21 22 28 29 17 12 15 15 15 15 15 16 15 17 19 18 20 21 18 17 17 16 20 21 17 17 16 12 15 18 16 15 17 17 18 18 17 21 32 32 27 33 40 44 51 51 50 57 60 62 71 76 76 74 72 80 85 77 76 80 77 74 71 69 66 62 62 58 49 44 43 47
9 8 8 11 12 12 12 13 13 14 14 14 16 19 18 19 22 26 33 26 14 13 14 13 14 14 15 17 17 18 18 18 19 17 17 19 17 16 18 17 15 16 17 13 14 15 15 15 14 14 17 18 18 24 32 29 26 31 36 40 49 54 55 60 61 61 74 78 72 73 70 71 79 79 76 77 75 72 71 72 69 64 63 63 57 49 43 43
9 8 8 9 12 12 12 14 15 14 13 13 16 18 18 21 23 27 31 21 12 13 13 13 14 13 15 17 17 18 17 18 19 18 20 21 20 19 17 17 17 17 18 17 15 15 15 14 13 11 13 15 17 24 27 25 25 28 32 38 48 57 59 61 64 62 68 73 69 70 70 67 72 72 69 68 68 69 71 73 73 69 67 65 64 58 47 42
8 9 8 9 11 12 13 14 16 14 12 14 17 18 21 28 30 25 19 15 14 14 13 13 14 14 14 14 16 17 16 18 18 19 22 22 23 22 20 22 22 20 24 25 20 18 17 15 14 12 11 13 16 18 21 23 25 27 31 36 45 59 63 62 66 65 64 68 68 68 70 71 68 63 62 63 64 68 70 71 73 72 69 66 65 63 56 46
8 8 8 8 9 12 12 13 14 13 12 15 17 18 23 30 32 23 13 12 16 14 12 14 14 14 14 16 18 16 16 18 17 18 20 19 22 22 19 20 20 21 28 29 21 20 21 18 17 15 13 13 14 16 20 23 25 28 33 36 42 55 65 66 70 68 62 63 69 69 68 73 73 64 62 64 64 68 70 69 69 69 68 66 64 65 62 54
8 7 9 8 8 11 13 13 13 12 13 16 17 20 24 25 23 18 13 12 14 13 12 13 14 13 14 18 20 16 18 20 17 18 19 18 21 24 23 20 16 18 24 25 23 21 21 23 24 22 19 16 14 15 20 24 27 31 33 34 38 47 58 66 71 70 65 67 72 68 65 70 74 70 69 69 69 70 69 68 69 68 66 66 67 68 68 62
8 7 8 9 8 10 12 13 13 12 14 16 18 23 25 23 19 17 16 14 13 13 13 12 13 15 17 18 17 15 19 22 18 17 21 24 27 27 27 25 19 17 19 23 27 25 23 27 27 26 25 20 15 15 19 22 26 31 34 35 35 41 53 61 64 63 65 70 69 64 67 71 67 65 67 69 70 70 68 67 68 68 68 68 67 70 71 69
11 9 8 8 10 10 12 14 13 12 14 16 21 25 24 21 20 17 16 16 15 13 13 14 14 19 25 23 18 15 16 18 18 18 21 26 28 27 26 26 22 18 20 25 30 28 27 30 29 28 26 21 17 18 18 19 25 31 36 37 33 37 48 58 64 63 61 69 69 62 68 74 69 64 63 64 68 67 65 66 64 65 70 70 68 71 73 73
12 12 10 11 12 11 11 13 13 13 15 16 21 25 22 18 18 17 16 15 14 12 13 19 22 22 25 25 23 21 16 17 19 21 25 27 27 26 24 25 22 19 21 25 28 31 29 31 32 30 28 23 19 19 20 22 26 33 39 38 35 38 45 52 64 64 57 63 70 67 68 73 70 66 65 69 71 66 63 66 63 61 67 69 70 75 76 75
11 12 11 12 14 12 10 13 14 14 16 17 21 24 22 18 17 17 16 14 14 13 12 20 26 24 21 23 26 24 21 25 27 26 30 30 30 29 26 26 24 20 20 22 28 32 30 32 34 32 29 27 23 20 21 24 25 30 39 39 39 41 43 46 55 60 61 63 65 69 76 77 72 69 69 71 74 70 67 66 63 61 62 63 68 74 78 78
12 13 13 13 13 11 9 12 14 15 16 18 22 23 20 19 19 17 16 14 15 13 12 19 24 21 21 24 26 24 22 28 30 29 31 32 32 32 29 29 27 24 22 21 28 33 32 34 37 35 32 29 27 22 22 27 27 27 32 36 39 39 38 42 47 54 66 66 60 67 78 79 75 73 70 69 72 72 69 68 68 67 63 60 64 70 76 78
13 15 17 17 14 10 9 12 15 16 16 19 23 24 20 19 19 18 17 16 16 14 13 17 20 21 23 22 23 23 22 24 26 30 33 32 32 33 31 28 27 27 25 22 25 29 31 35 38 41 38 31 29 25 25 33 35 32 32 32 36 36 35 40 44 50 60 62 61 66 71 75 74 71 69 67 68 69 67 67 67 67 66 63 64 69 74 76
14 14 19 21 16 11 10 13 15 15 17 19 23 23 21 20 19 19 18 17 16 15 14 15 17 21 25 25 25 25 23 24 24 27 32 32 31 34 32 29 28 27 27 27 29 30 32 36 37 40 39 33 34 35 36 40 42 42 39 33 31 33 33 37 41 47 53 54 57 59 63 73 72 65 67 65 62 64 65 64 63 63 65 63 62 67 71 74
17 17 21 23 18 13 12 14 15 15 17 20 22 22 22 20 19 20 20 17 17 16 14 14 14 16 19 24 28 26 23 25 26 26 30 31 32 35 33 29 28 26 26 29 33 32 31 33 34 37 38 33 35 41 41 40 41 42 40 36 37 38 37 37 39 43 46 47 50 49 57 71 69 61 62 59 56 61 62 62 64 66 68 65 61 63 67 70
25 24 25 25 21 16 15 17 16 15 18 21 22 22 22 21 19 19 20 19 18 16 15 14 13 15 19 20 23 24 23 27 27 27 29 30 32 32 27 25 26 25 26 30 34 33 31 32 33 35 38 34 32 36 37 36 37 37 36 37 44 46 43 38 39 42 44 46 47 44 53 70 68 61 60 57 56 60 61 63 67 69 72 70 66 65 64 65
25 24 27 27 22 18 17 18 19 18 19 21 22 23 23 22 20 21 21 20 18 17 16 15 13 16 20 17 18 23 25 28 30 29 29 31 33 30 24 22 23 26 30 32 32 32 32 36 36 37 41 42 39 37 37 37 35 36 40 41 41 44 45 40 41 44 45 46 45 44 57 73 69 61 62 61 60 61 63 67 68 68 72 72 70 69 67 66
26 26 28 28 24 22 20 20 20 22 23 22 21 22 24 22 21 21 22 22 20 18 17 17 16 15 16 15 17 19 20 23 30 33 30 30 32 28 23 21 22 26 31 30 29 29 30 35 39 40 46 49 46 42 43 44 38 36 45 48 42 41 42 42 44 48 47 45 44 48 62 74 69 62 64 64 61 62 64 65 64 64 67 69 70 72 73 74
25 27 31 32 28 24 24 24 22 24 27 25 22 23 25 24 22 22 22 22 22 20 18 18 17 15 15 16 16 17 16 16 24 32 31 30 33 30 23 21 24 26 27 26 26 27 29 34 36 37 39 40 41 42 46 49 45 40 47 52 49 43 41 42 45 49 49 44 44 52 60 66 68 68 68 65 62 62 63 63 62 64 66 66 69 72 73 74
22 26 35 40 39 33 28 27 25 23 25 27 27 28 26 24 24 22 21 21 22 21 19 19 18 17 17 17 15 16 19 19 21 27 28 28 34 34 25 20 23 26 24 23 24 26 29 36 41 42 38 33 35 42 47 48 45 44 47 52 50 42 40 43 42 45 48 45 46 55 58 62 69 70 69 68 65 62 60 61 63 67 69 68 69 71 71 69
25 28 31 34 39 40 37 37 36 30 26 27 30 30 27 25 25 23 20 21 22 22 21 21 20 18 18 19 19 19 23 25 23 25 27 28 30 33 30 24 23 24 23 22 25 25 27 38 50 51 44 37 35 40 44 44 44 45 47 52 53 49 48 51 46 44 47 45 46 55 61 66 69 67 66 68 65 61 59 60 62 65 70 73 72 72 72 70
27 28 27 26 27 33 39 44 46 42 36 33 32 30 29 28 26 23 21 21 22 23 23 23 23 23 20 18 20 23 29 30 27 28 32 30 28 31 32 31 30 27 22 23 29 27 23 35 50 51 46 42 39 39 41 44 49 50 47 50 60 61 57 58 55 49 45 45 49 56 62 66 68 66 66 63 60 61 61 59 59 62 68 74 72 71 72 71
30 30 32 29 23 22 28 35 41 44 41 37 32 28 28 28 26 24 23 22 22 24 24 23 26 29 27 22 19 22 29 31 31 35 35 30 28 29 27 30 35 33 26 26 32 30 24 32 45 48 48 47 44 43 45 49 59 62 52 47 51 51 48 52 55 50 45 48 56 61 63 66 67 66 65 60 58 62 62 59 58 60 65 70 70 69 71 68
32 32 33 32 26 23 23 24 29 36 38 38 36 29 26 26 27 28 28 25 22 25 27 24 24 28 29 26 20 20 27 31 30 32 30 26 29 31 28 30 34 34 32 32 32 29 25 29 37 42 46 49 50 51 47 48 58 65 58 53 52 48 48 49 49 49 49 51 59 63 62 63 63 61 58 56 57 61 62 60 58 57 60 65 68 69 69 65
33 34 36 35 32 30 27 22 23 29 33 37 40 36 32 30 29 29 31 28 23 26 30 29 26 28 31 29 22 20 29 36 32 27 23 20 22 24 25 26 26 26 29 33 34 31 26 27 32 38 43 47 53 59 53 44 50 55 56 60 57 50 49 48 46 51 54 54 57 60 58 58 59 56 53 53 55 59 62 62 61 59 59 62 66 68 67 63